GEFSNGP_con_probscp_324.txt.gz
Probability
0 0 0 0 0 0 0 0 0 0 1 2 5 7 6 6 5 4 3 2 2 3 3 2 1 1 2 5 9 13 13 13 13 13 12 10 7 6 6 6 7 8 9 9
0 0 0 0 0 0 0 0 0 0 0 2 5 7 7 6 4 3 3 2 3 4 4 4 3 3 5 7 11 14 14 13 12 11 11 10 8 6 6 6 6 6 6 6
0 0 0 0 0 0 0 0 0 0 1 3 6 9 10 8 5 3 3 4 5 7 7 7 6 6 7 9 12 15 15 13 11 10 10 9 8 6 5 4 4 4 4 4
0 0 0 0 0 0 0 1 1 1 2 5 9 11 12 10 7 6 5 6 7 8 8 8 7 8 8 9 12 16 17 15 14 11 9 9 9 6 5 4 3 3 3 3
0 0 0 0 0 0 1 2 3 3 5 9 11 11 10 9 8 8 7 7 7 8 9 9 8 8 7 8 12 17 18 16 15 12 10 10 9 7 7 6 5 4 5 5
0 0 0 0 1 1 1 2 4 6 8 11 10 7 5 5 6 6 7 7 6 7 10 10 8 6 6 7 10 15 16 14 14 12 11 10 9 8 8 8 7 7 7 8
0 0 0 0 1 1 0 1 4 6 7 7 6 4 3 5 5 6 7 7 6 6 7 8 6 4 4 4 7 10 11 10 11 11 11 11 11 9 9 9 9 8 8 7
0 0 0 0 1 0 0 1 3 5 5 4 4 5 6 7 8 8 9 9 8 5 4 4 5 4 3 2 3 6 7 8 8 9 9 11 12 10 9 8 8 9 8 6
0 0 0 0 1 1 1 1 2 4 5 4 4 6 8 9 9 10 11 10 8 6 4 4 4 5 4 3 4 6 7 7 7 8 8 9 10 9 8 7 8 9 9 7
1 1 1 1 1 1 2 2 3 4 5 5 5 6 7 8 9 9 9 8 7 6 5 5 6 7 6 6 6 8 9 9 9 9 8 8 7 7 7 8 9 10 9 7
2 2 2 2 2 3 4 4 4 5 6 6 6 6 6 6 7 8 9 8 7 6 5 5 6 6 6 6 6 7 8 8 8 8 8 8 7 7 7 8 9 8 7 7
2 2 3 4 4 4 5 6 6 6 6 5 5 6 6 5 5 6 8 8 7 6 5 4 4 4 4 4 4 5 5 5 5 6 8 8 8 8 7 7 6 4 4 5
2 3 4 5 6 6 6 6 6 6 5 4 4 4 4 3 2 3 5 6 6 6 6 5 4 3 3 3 3 4 4 4 4 5 7 8 8 9 8 6 4 2 2 2
3 4 5 6 6 6 5 4 3 3 3 3 3 3 3 2 1 1 2 3 4 5 5 6 5 5 4 4 4 5 5 4 3 4 5 6 6 8 8 8 6 4 2 1
4 5 5 5 5 5 4 3 2 1 1 1 2 2 2 1 0 0 0 1 1 2 4 5 6 6 6 5 5 5 4 4 3 3 4 4 4 5 6 7 7 6 5 4
4 4 4 4 3 3 3 2 1 0 0 0 1 1 1 0 0 0 0 0 0 1 3 4 5 6 6 6 5 4 3 2 2 2 3 3 3 3 4 4 5 6 6 6
3 3 3 3 2 1 1 1 1 0 0 0 0 0 0 0 0 0 0 0 0 1 2 3 3 4 5 5 5 3 2 1 1 1 1 2 2 2 1 2 3 5 6 6
3 3 3 2 1 0 0 0 0 0 0 0 0 0 0 0 0 0 0 0 0 0 1 2 2 2 3 4 4 3 2 1 0 0 0 1 1 1 0 1 3 4 4 4
3 2 1 1 0 0 0 0 0 0 0 0 0 0 0 0 0 0 0 0 0 1 1 1 1 1 2 2 2 2 2 1 0 0 0 0 0 0 1 1 3 3 3 3
2 1 0 0 0 0 0 0 0 0 0 0 0 0 0 0 0 0 0 0 0 1 1 0 0 0 1 1 1 1 1 0 0 0 1 1 1 1 1 2 2 3 3 3
1 0 0 0 0 0 0 0 0 0 0 0 0 0 0 0 0 0 0 0 0 0 0 0 0 0 0 0 0 0 0 0 0 1 2 2 2 1 1 1 1 2 2 2
0 0 0 0 0 0 0 0 0 0 0 0 0 0 0 0 0 0 0 0 0 0 0 0 0 0 0 0 0 0 0 0 0 1 2 3 2 1 0 0 0 1 1 1
0 0 0 0 0 0 0 0 0 0 0 0 0 0 0 0 0 0 0 0 0 0 0 0 0 0 0 0 0 0 0 0 0 1 2 2 2 1 0 0 0 0 0 0
0 0 0 0 0 0 0 0 0 0 0 0 0 0 0 0 0 0 0 0 0 0 0 0 0 0 0 0 0 0 0 0 0 0 1 1 1 0 0 0 0 0 0 0
0 0 0 0 0 0 0 0 0 0 0 0 0 0 0 0 0 0 0 0 0 0 0 0 0 0 0 0 0 0 0 0 0 0 0 0 0 0 0 0 0 0 0 0
0 0 0 0 0 0 0 0 0 0 0 0 0 0 0 0 0 0 0 0 0 0 0 0 0 0 0 0 0 0 0 0 0 0 0 0 0 0 0 0 0 0 0 0
0 0 0 0 0 0 0 0 0 0 0 0 0 0 0 0 0 0 0 0 0 0 0 0 0 0 0 0 0 0 0 0 0 0 0 0 0 0 0 0 0 0 0 0

GEFSNGP_con_probscp_330.txt.gz
Probability
0 0 1 2 2 1 1 1 2 3 4 5 8 12 14 13 11 10 11 13 16 16 11 9 12 17 21 24 25 24 21 19 17 15 13 13 14 14 14 16 17 19 21 23
0 0 1 2 2 2 2 2 3 4 6 7 10 13 15 14 12 11 12 15 17 15 12 11 13 17 20 22 24 25 24 22 21 19 17 17 15 12 12 13 15 17 19 20
0 0 0 1 2 2 3 4 5 7 8 9 10 14 15 15 16 16 16 17 16 13 12 13 14 16 18 20 24 27 27 27 28 27 25 22 16 11 11 13 15 17 17 16
0 0 0 0 1 1 2 5 8 10 10 9 10 13 15 16 18 19 20 18 15 11 11 14 15 16 18 20 24 27 27 29 32 32 28 23 17 14 14 17 19 19 19 17
0 0 0 1 1 1 1 5 9 10 10 10 11 14 16 17 19 21 22 20 15 12 11 14 16 16 17 20 23 25 25 26 30 31 27 22 18 17 18 19 19 20 20 19
0 0 1 3 3 2 2 5 10 11 10 11 13 16 19 20 22 24 24 21 18 16 14 14 16 16 17 19 21 23 23 24 25 26 24 22 20 20 20 19 18 18 18 18
0 0 2 5 6 5 5 9 13 14 13 13 15 18 22 23 22 23 22 22 21 21 19 18 17 17 18 18 19 21 22 22 22 22 21 20 20 19 19 18 17 18 18 19
2 2 3 5 6 8 10 13 16 17 17 16 18 21 24 25 22 19 18 19 20 21 21 20 18 18 18 18 17 17 18 19 20 20 18 17 17 17 17 18 17 18 19 19
4 4 3 3 5 8 10 11 13 16 18 19 21 23 23 23 22 19 16 15 16 17 17 17 17 18 18 18 15 14 15 18 20 20 17 15 15 16 17 17 17 17 17 17
5 4 3 3 4 6 6 7 9 11 14 16 18 20 20 20 21 19 15 12 13 15 14 15 16 17 18 18 16 14 15 18 21 20 18 16 16 16 16 16 15 15 14 14
5 4 3 3 4 4 5 5 6 7 9 11 14 16 16 16 17 16 12 10 11 13 14 15 17 18 17 17 18 18 17 19 21 20 18 18 18 17 16 15 14 13 12 11
6 5 3 3 4 4 5 4 4 6 8 11 12 13 13 13 13 12 9 7 7 10 13 15 17 18 18 17 19 19 18 19 19 19 19 19 18 16 15 13 11 8 8 8
6 5 4 4 5 6 6 5 5 8 10 10 11 11 11 11 10 8 6 5 5 7 10 13 15 16 15 16 17 18 16 16 17 18 19 19 18 17 15 13 9 5 4 4
5 6 6 6 7 8 7 6 7 8 9 9 9 8 8 8 7 5 4 4 5 6 8 10 12 12 11 12 15 15 13 13 15 17 18 18 17 17 16 16 14 10 5 2
4 5 6 6 7 7 7 7 8 8 7 6 6 6 5 5 5 3 4 5 7 7 7 9 10 9 8 10 12 12 10 10 13 16 17 16 15 15 16 17 16 14 9 7
2 4 5 6 6 5 5 6 8 7 6 5 5 6 6 6 4 4 5 6 6 6 7 8 8 7 7 8 9 9 8 7 10 14 15 15 14 15 15 15 13 12 11 10
2 4 5 6 6 4 4 5 6 5 4 4 6 7 8 7 5 4 5 5 5 5 5 6 6 6 6 7 8 8 8 8 10 12 13 13 13 13 14 13 10 9 9 9
2 3 4 5 6 5 4 4 4 3 3 5 7 7 8 8 6 5 5 6 5 4 2 2 3 4 6 7 7 8 9 11 12 12 11 11 11 11 11 11 9 8 8 8
2 3 4 5 6 5 4 3 3 3 3 5 6 7 7 7 6 4 4 6 6 4 1 0 1 2 4 5 6 8 9 10 11 11 10 9 9 9 9 9 8 6 6 8
3 3 5 5 5 5 4 3 2 2 2 3 4 5 6 5 4 3 3 4 4 3 2 1 1 2 3 4 6 8 8 8 9 9 8 7 8 7 6 7 7 6 5 6
3 3 4 4 3 3 2 1 1 1 1 1 2 3 3 3 3 3 3 3 3 2 2 2 2 3 3 4 6 7 7 7 8 8 7 6 5 3 3 4 6 5 5 5
3 3 3 2 1 1 0 0 0 0 0 0 1 1 0 1 2 2 2 2 1 1 1 2 3 2 3 3 4 6 6 6 7 8 6 4 2 1 1 3 3 3 3 3
3 3 2 1 0 0 0 0 0 0 0 0 0 0 0 0 1 1 1 1 0 0 1 1 1 1 1 2 2 3 3 3 4 4 3 2 1 0 0 1 1 1 1 1
2 2 1 0 0 0 0 0 0 0 0 1 0 0 0 0 0 0 0 0 0 0 0 0 0 0 0 1 1 1 1 1 1 1 0 0 0 0 0 0 0 0 0 0
1 1 1 1 0 0 0 0 0 0 0 0 0 0 0 0 0 0 0 0 0 0 0 0 0 0 0 0 0 0 0 0 0 0 0 0 0 0 0 0 0 0 0 0
0 0 1 1 0 0 0 0 0 0 0 0 0 0 0 0 0 0 0 0 0 0 0 0 0 0 0 0 0 0 0 0 0 0 0 0 0 0 0 0 0 0 0 0
0 0 1 1 0 0 0 0 0 0 0 0 0 0 0 0 0 0 0 0 0 0 0 0 0 0 0 0 0 0 0 0 0 0 0 0 0 0 0 0 0 0 0 0

GEFSNGP_con_probscp_336.txt.gz
Probability
0 0 0 0 0 0 0 0 0 1 3 5 7 10 12 11 12 15 18 20 22 26 32 35 36 37 36 34 36 41 43 43 43 42 41 39 35 34 34 31 27 26 25 24
0 0 0 0 0 0 0 0 1 3 5 7 10 13 14 14 15 17 20 24 24 25 30 34 35 35 33 33 36 42 45 45 45 44 43 41 38 36 37 36 33 29 26 25
0 0 0 0 0 0 0 1 3 6 10 13 16 18 18 20 23 24 26 29 30 29 30 33 33 32 32 31 36 43 47 48 49 49 48 47 44 42 43 43 38 33 29 26
1 1 0 0 0 0 0 2 5 10 13 16 20 21 21 25 30 31 30 32 34 33 33 33 32 32 31 32 36 43 47 49 51 52 52 51 49 46 45 44 40 35 31 29
2 2 1 1 1 1 1 3 8 12 14 17 20 21 23 28 32 31 30 31 33 33 34 34 34 35 35 34 36 41 45 47 48 50 51 51 50 46 41 39 38 35 33 30
2 2 1 2 2 1 2 7 13 15 17 20 23 25 29 32 32 31 31 31 30 30 32 35 38 40 41 38 36 37 41 44 46 48 51 51 49 45 40 36 34 33 31 30
1 1 2 3 4 6 10 15 19 20 22 27 31 33 36 36 33 33 32 28 27 27 30 34 37 40 42 41 38 37 39 42 44 46 47 47 46 44 40 35 31 30 29 27
4 4 7 9 11 16 20 21 21 21 23 28 32 35 36 34 32 32 30 26 25 27 30 30 32 38 40 41 41 40 40 41 43 43 41 41 42 42 39 35 30 27 25 23
8 8 12 15 17 19 21 21 19 18 20 23 27 31 31 29 29 30 30 27 26 27 26 25 27 32 35 38 40 41 40 41 42 42 39 40 40 40 37 34 28 24 22 22
13 12 12 14 14 13 13 14 13 14 17 20 23 25 24 24 27 30 30 30 29 26 23 22 23 26 30 34 37 38 36 37 39 39 38 40 40 38 35 31 26 23 22 22
17 15 13 12 8 6 8 9 10 13 16 19 20 19 19 21 25 26 27 28 28 26 24 21 21 25 28 31 33 32 31 31 32 33 34 37 37 33 29 25 21 19 18 18
16 15 14 11 6 4 6 9 12 15 17 18 17 15 17 20 21 21 20 21 23 25 24 21 21 24 28 30 31 30 28 28 27 26 28 31 30 25 21 17 14 11 10 11
12 12 11 9 7 5 7 10 14 16 17 16 15 14 15 18 18 17 15 15 18 21 22 21 21 24 27 30 30 29 27 25 24 23 22 23 23 21 18 14 11 9 7 5
10 10 9 9 9 9 9 11 14 15 15 14 14 13 13 14 14 13 13 12 13 16 19 20 20 21 23 26 27 26 23 21 20 20 18 18 20 20 18 16 15 14 10 6
7 8 8 9 10 10 11 12 13 13 13 13 13 13 13 13 13 13 13 11 11 13 16 17 16 15 17 18 20 20 19 17 16 16 15 16 18 18 18 18 18 18 15 11
4 4 5 7 8 9 10 11 11 11 11 11 11 13 13 13 13 13 12 10 10 11 13 13 13 14 14 13 13 15 16 13 11 10 9 11 14 15 17 18 19 19 17 14
2 2 3 4 6 6 7 8 9 10 10 10 11 12 12 11 10 9 8 7 8 10 11 11 13 14 13 10 10 11 12 10 7 5 5 7 11 14 16 16 18 19 17 14
5 5 5 6 6 6 7 8 9 10 9 9 10 10 11 10 8 7 6 5 6 8 9 9 9 9 8 7 8 10 10 9 6 5 6 8 10 13 14 15 15 16 14 12
9 8 8 8 7 8 8 9 10 9 8 7 6 7 9 11 9 7 6 4 5 8 9 7 5 4 4 5 6 8 9 6 5 6 8 9 10 11 12 12 11 10 10 10
10 10 10 9 9 9 9 8 9 8 6 5 4 5 7 9 8 6 5 4 5 8 8 5 3 3 4 4 4 5 5 4 4 5 7 8 8 9 9 8 6 6 6 7
10 10 9 9 9 8 7 7 7 6 4 3 3 4 6 8 6 4 4 5 6 7 6 4 3 3 3 2 2 3 3 3 4 5 6 6 6 6 6 4 3 3 3 3
9 9 8 8 8 7 6 6 6 5 4 4 3 4 6 7 5 4 4 5 6 6 5 4 3 2 1 1 1 2 3 3 3 4 4 4 4 3 2 1 1 2 1 0
8 8 7 7 7 7 6 6 6 6 6 5 4 4 4 4 3 2 3 4 4 3 4 3 2 1 0 0 0 2 3 3 3 3 3 2 2 1 0 0 0 0 0 0
6 7 7 6 6 6 6 5 5 6 5 5 4 3 2 1 1 1 1 1 1 1 2 1 1 0 0 0 1 2 2 2 2 2 1 1 1 0 0 0 0 0 0 0
6 5 6 6 6 5 4 2 2 2 2 2 1 1 1 0 0 0 0 0 0 0 0 0 0 0 0 0 1 2 1 1 1 1 0 0 0 0 0 0 0 0 0 0
4 4 5 5 4 4 2 0 0 0 0 0 0 0 0 0 0 0 0 0 0 0 0 0 0 0 0 0 1 1 0 0 0 0 0 0 0 0 0 0 0 0 0 0
3 4 6 4 2 3 2 1 0 0 0 0 0 0 0 0 0 0 0 0 0 0 0 0 0 0 0 0 0 0 0 0 0 0 0 0 0 0 0 0 0 0 0 0

GEFSNGP_con_probscp_342.txt.gz
Probability
0 0 0 1 2 1 0 0 0 0 1 3 7 11 14 15 15 16 19 21 22 22 21 20 17 14 16 20 23 26 28 29 29 29 28 26 24 22 20 19 17 14 11 10
0 0 0 1 2 1 0 0 0 0 2 6 11 14 16 16 17 18 20 22 23 21 21 20 17 16 18 20 22 24 25 27 28 28 26 24 22 21 19 17 16 14 12 12
0 0 0 1 1 1 1 1 1 2 5 10 16 18 17 17 18 20 21 22 21 20 20 19 18 18 19 19 20 21 22 23 25 24 23 21 19 18 18 16 15 14 14 14
0 0 0 0 0 1 2 2 4 7 10 15 19 20 17 17 19 20 19 17 18 17 16 16 17 17 17 16 16 18 19 19 19 19 19 18 17 16 16 15 14 14 14 13
1 1 0 0 0 0 1 3 7 11 14 18 20 21 19 19 20 20 17 14 14 15 14 13 15 14 12 11 12 14 15 15 14 15 15 15 15 14 15 16 16 15 13 12
2 1 0 0 0 1 2 5 8 12 15 18 19 20 20 20 21 19 15 14 13 12 11 9 10 10 8 8 9 10 12 12 12 12 11 11 12 13 15 18 19 18 15 14
1 1 0 0 0 1 3 6 9 12 14 16 16 18 18 19 19 17 14 13 12 9 7 6 6 6 6 6 6 7 9 11 11 10 9 9 9 11 15 18 20 19 17 15
0 0 0 1 3 3 3 6 9 12 14 15 16 16 16 16 15 13 12 11 9 7 5 5 5 6 5 5 4 5 6 8 9 10 10 10 10 10 13 16 18 19 17 14
2 3 3 5 7 7 6 7 9 11 13 15 17 17 14 12 11 9 8 7 6 6 6 6 6 6 6 6 5 3 4 6 7 9 11 12 12 11 12 14 17 17 15 13
6 6 7 9 10 10 9 8 9 10 12 15 16 15 12 10 9 7 5 4 4 5 6 6 6 6 6 6 5 4 3 4 6 8 10 11 12 12 12 13 14 14 12 11
6 6 7 8 8 9 10 9 9 10 11 12 13 12 10 9 8 6 4 3 3 4 4 4 5 6 6 5 5 4 3 2 4 6 7 9 10 10 10 9 9 9 8 8
3 4 5 5 6 7 7 7 8 8 9 10 11 11 10 9 6 4 3 3 3 3 3 3 4 5 5 4 4 4 3 1 2 4 6 7 7 7 6 4 3 3 4 4
2 3 4 4 4 4 4 4 5 6 7 9 10 11 11 8 5 3 3 3 3 3 3 3 3 4 3 3 3 3 3 2 2 3 5 6 6 6 5 3 2 1 1 1
2 3 3 3 3 2 2 3 4 5 6 7 9 9 9 7 5 3 3 3 3 3 3 3 3 2 2 3 3 3 3 3 2 2 3 5 6 6 6 5 3 1 0 0
1 1 2 3 3 3 3 5 6 6 8 8 7 7 7 6 5 4 3 3 3 3 2 2 1 1 1 2 3 3 3 3 2 1 2 5 6 6 6 4 2 1 0 0
0 0 1 2 3 3 5 6 6 7 9 9 8 7 6 6 5 4 3 2 2 1 1 1 0 0 0 1 3 3 3 3 2 1 1 3 4 5 4 2 1 0 0 0
0 0 1 2 3 4 4 5 6 6 9 11 9 7 6 5 5 4 2 1 1 0 0 0 0 0 0 1 2 3 3 3 2 1 0 1 1 2 1 0 0 1 1 0
0 0 1 2 3 3 3 3 4 5 8 10 9 6 4 3 3 3 1 0 0 0 0 0 0 0 0 1 2 3 3 3 2 1 0 0 0 0 0 0 0 1 1 1
0 0 0 1 2 2 3 3 3 4 6 7 6 3 1 1 1 1 1 1 1 1 0 0 0 0 0 1 2 3 3 3 2 1 0 0 0 0 1 0 0 1 1 0
1 1 0 1 2 2 2 2 3 3 4 3 3 1 0 0 0 0 0 1 1 1 0 0 0 0 0 0 1 1 2 2 1 0 0 0 0 0 0 0 0 0 0 0
2 1 1 2 3 2 1 1 2 2 2 1 1 0 0 0 0 0 0 0 1 1 0 0 0 0 0 0 0 0 1 1 0 0 0 0 0 0 0 0 0 0 0 0
2 2 2 3 3 3 1 1 1 1 1 0 0 0 0 0 0 0 1 1 0 0 0 0 0 0 0 0 0 0 0 0 0 0 0 0 0 0 0 0 0 0 0 0
2 2 3 3 3 3 2 1 0 0 0 0 0 0 0 0 0 0 1 1 1 0 0 0 0 0 0 0 0 0 0 0 0 0 0 0 0 0 0 0 0 0 0 0
2 2 2 2 2 2 1 0 0 0 0 0 0 0 0 0 0 0 0 1 1 0 0 1 0 0 0 0 0 0 0 0 0 0 0 0 0 0 0 0 0 0 0 0
1 1 1 1 1 0 0 0 0 0 0 0 0 0 0 0 0 0 0 0 0 0 0 0 0 0 0 0 0 0 0 0 0 0 0 0 0 0 0 0 0 0 0 0
0 0 0 0 0 0 0 0 0 0 0 0 0 0 0 0 0 0 0 0 0 0 0 0 0 0 0 0 0 0 0 0 0 0 0 0 0 0 0 0 0 0 0 0
0 0 0 0 0 0 0 0 0 0 0 0 0 0 0 0 0 0 0 0 0 0 0 0 0 0 0 0 0 0 0 0 0 0 0 0 0 0 0 0 0 0 0 0